Погода в Анадыре

Погода в Анадыре : погода сейчас, прогноз погоды и архив. Всё, что Вы хотите узнать о погоде в Анадыре!

Хотите узнать прогноз погоды в Анадыре? Тогда Вам сюда: Погода в Анадыре

Поиск расширенной информации на нашем сайте:

Другие новости

Новости СМИ2

Главная страница сайта

Новости сайта

02.10.2013

Напоминаем, что на нашем новом сайте вы можете получить высокодетализированные прогнозы погоды по пунктам России, СНГ и мира (включающие важные для авиации метеовеличины, такие как направление и скорость ветра, видимость, явления погоды, количество и форма облачности, нижняя и верхняя граница облачности), а также ознакомиться с разнообразными материалами по авиационной метеорологии и подборкой полезных ссылок на эту тему.

Сайт Метеоцентр.Азия посвящён разработке технологий оптимизации авиаметеорологического обслуживания, включая проектирование и перспективное создание нескольких автоматизированных авиаметеорологических систем:
- система выпуска высокодетальных прогностических карт явлений погоды для нижнего воздушного пространства по России и ближнему зарубежью;
- система верификации прогнозов TAF (выпускаемых синоптиками официальных АМСГ РФ и ближнего зарубежья) и AUTOTAF (выпускаемых сайтом Метеоцентр.Азия) - выявление ошибок, онлайн-сопоставление с фактической погодой METAR, автоматическое внесение коррективов в прогнозы при резком отклонении фактической погоды от прогноза, подсчёт оправдываемости прогнозов по элементам и в целом;
- система обработки, анализа и отображения авиаметеорологической информации для применения провайдерами метеорологической информации.

Рекомендуем: Цена на Вибуркол в аптеках в Москве

Погода в Анадыре - сегодня

Время (UTC), дата Ветер
(°,м/с) 
Видим.   Явления Облачность Т
(°С)
Тd
(°С)
f(%) Тe
(°С)
Pmin
(гПа)
dP
(гПа)
Po
(мм)
O2
(г/м3)
Тmin Tmax R s Состояние
почвы
03 20.01.17 340 (С) 5{08}  20000 м    8/0 средняя, верхняя 
[Ac trans|Ci fib]
-28.2 -30.7 79 -36  1013.5  754  341           
06 20.01.17 330 (СЗ) 6{09}  50000 м    5/0 средняя, верхняя 
[Ac trans|Ci fib]
-27.7 -30.3 78 -36  1014.5  0.9  754  340    -27.7       
09 20.01.17 290 (З) 7{10}  50000 м    3/0 средняя 
[Ac trans]
-27.9 -30.4 79 -37  1015.2  0.7  755  341           
12 20.01.17 300 (СЗ) 6{11}  50000 м    1/0 средняя 
[Ac trans]
-28.3 -30.8 79 -37  1015.7  0.5  755  341           
15 20.01.17 330 (СЗ) 5{09}  50000 м    ясно 
-30.3 -33.1 77 -39  1015.9  0.2  755  344           
18 20.01.17 310 (СЗ) 7{10}  50000 м    ясно 
-30 -32.6 78 -40  1016.6  0.7  756  344  -30.4      18  неравномерный
мокрый или
старый снег
100% 
21 20.01.17 320 (СЗ) 6{09}  50000 м    ясно 
-30.9 -33.7 76 -40  1017.5  0.9  757  346  -30.9         
00 21.01.17 320 (СЗ) 5{09}  20000 м    3/0 верхняя 
[Ci fib]
-30.2 -33 77 -38  1018  0.5  757  345           
03 21.01.17 320 (СЗ) 7{08}  20000 м    ясно 
-29 -31.6 78 -39  1018.3  0.3  757  343           
06 21.01.17 330 (СЗ) 6{08}  50000 м    ясно 
-28.5 -31.3 77 -37  1018.7  0.4  758  343    -28.5       
09 21.01.17 330 (СЗ) 5{08}  50000 м    ясно 
-28.3 -31.1 77 -36  1019.1  0.4  758  343           
12 21.01.17 330 (СЗ) 4{07}  50000 м    ясно 
-28.6 -31.3 78 -35  1019.3  0.2  758  343           
15 21.01.17 310 (СЗ) 4{06}  50000 м    ясно 
-29.1 -31.8 77 -36  1019.5  0.2  758  344           
18 21.01.17 330 (СЗ) 2{05}  50000 м    ясно 
-28.7 -31.4 77 -32  1019.6  0.1  758  343  -29.1      18  неравномерный
мокрый или
старый снег
100% 
21 21.01.17 330 (СЗ) 3{05}  50000 м    ясно 
-28.1 -31.1 75 -33  1020.2  0.6  759  343           
00 22.01.17 340 (С) 2{05}  20000 м    4/0 верхняя 
[Ci fib]
-28.1 -31 76 -32  1020.6  0.4  759  343           
03 22.01.17 340 (С) 4{05}  20000 м    5/0 верхняя 
[Ci fib]
-27.9 -31.1 74 -35  1020.4  -0.2  759  342           
06 22.01.17 360 (С) 2{06}  50000 м    3/0 верхняя 
[Ci fib]
-27.4 -30.7 73 -31  1020.7  0.5  759  342    -27.2       
09 22.01.17 350 (С) 3{05}  50000 м    ясно 
-28.1 -31.1 75 -33  1020.9  759  343           
12 22.01.17 340 (С) 4{04}  50000 м    ясно 
-28.5 -31 79 -35  1020.6  -0.3  759  343           
15 22.01.17 310 (СЗ) 2{04}  50000 м    ясно 
-29.3 -32.2 76 -33  1019.6  -1  758  344           
18 22.01.17 340 (С) 2{04}  50000 м    ясно 
-29.5 -31.8 80 -33  1018.5  -1.1  757  344  -31.7      18  неравномерный
мокрый или
старый снег
100% 
21 22.01.17 350 (С) 1{03}  50000 м    4/0 средняя, верхняя 
[Ac trans|Ci fib]
-27.3 -29.9 79 -28  1017.8  -0.5  757  341           
00 23.01.17 340 (С) 1{03}  20000 м    8/0 средняя, верхняя 
[Ac trans|Ci fib]
-31 -33.7 77 -32  1017.2  -0.8  756  346           
03 23.01.17 330 (СЗ) 3{04}  20000 м    4/0 средняя, верхняя 
[Ac trans|Ci fib]
-28.7 -31.2 79 -34  1015.5  -1.7  755  342           
Время (UTC), дата Ветер
(°,м/с) 
Видим.   Явления Облачность Т
(°С)
Тd
(°С)
f(%) Тe
(°С)
Pmin
(гПа)
dP
(гПа)
Po
(мм)
O2
(г/м3)
Тmin Tmax R s Состояние
почвы

Для получения пояснительной информации подведите курсор к названию столбца.

ПОГОДА в Анадыре - архив

Всё, что Вы хотите узнать о погоде в Анадыре - удобно и подробно!

Выберите нужную дату (начиная с 1 января 2015* года) и нажмите кнопку "Найти".
Будут отображены архивные сводки погоды по пункту Анадырь, начиная с указанной даты.


Отображать данные в формате CSV (для использования в таблицах Excel)


Внимание! Наш архив погоды предназначен исключительно для личного некоммерческого использования в познавательных целях. Если Вам необходимы официальные справки о состоянии погоды (для производственных, юридических, коммерческих и т.п. целей), обращайтесь в органы Росгидромета.

*Примечание: данная дата относится к архиву по метеостанциям СССР (Россия, СНГ, Балтия).
Архив по метеостанциям Зарубежной Европы и Азии (кроме Китая) хранится 10 дней, по другим регионам земного шара (Китай, Африка, Америка, Австралия, Океания) - 1 день.

Анадырь - район местоположения метеостанции


Название, широта, долгота, высота метеостанции:
Анадырь (город) 64.8°ш. 177.6°д. 61 м над ур. моря [Российская Федерация]

Дополнительная информация

В oтличие oт бoльшинства пoгoдных сайтoв мы публикуем пoдрoбную метеoинфoрмацию в детальнoм прoфессиoнальнoм фoрмате.

Характеристики температуры и влажнoсти вoздуха измеряются на высoте 2 м в тени вдали oт зданий и деревьев.
Скoрoсть ветра измеряется на высoте 10 м (на урoвне рoста челoвека скoрoсть ветра ниже в 1.5-2 раза). Если метеoстанция нахoдится в гoрoде или в лесу, тo скoрoсть ветра занижена на 2-4 м/с пo сравнению с oткрытым местoм. Скoрoсть ветра над акватoриями крупных рек и oзёр, а также на вершинах хoлмoв на 2-5 м/с выше, чем в oбычных услoвиях.
Атмoсфернoе давление в разных тoчках местнoсти мoжет значительнo oтличаться oт давления на метеoстанции, в зависимoсти oт услoвий рельефа (при пoдъёме на 10 м давление пoнижается примернo на 1 мм рт.ст.).